Weather History for Hatteras, NC

Change the Weather History Date:

Wednesday, January 12, 2011

  Actual Average Record
Temperature  
Mean Temperature 38 °F 45 °F  
Max Temperature 40 °F 52 °F 71 °F (1972)
Min Temperature 35 °F 39 °F 17 °F (1981)
Degree Days  
Heating Degree Days 27 20  
Month to date heating degree days 295 233  
Since 1 July heating degree days 1315 1040  
Cooling Degree Days 0 0  
Month to date cooling degree days 0 0  
Year to date cooling degree days 0 0  
Moisture  
Dew Point 27 °F    
Average Humidity 67    
Maximum Humidity 85    
Minimum Humidity 48    
Precipitation  
Precipitation 0.00 in 0.18 in 2.55 in (1979)
Month to date precipitation 0.10 2.03  
Year to date precipitation 0.10 2.03  
Snow  
Snow 0.00 in - - ()
Month to date snowfall T  
Since 1 July snowfall T  
Snow Depth 0.00 in    
Sea Level Pressure  
Sea Level Pressure 30.03 in    
Wind  
Wind Speed 15 mph (WNW)    
Max Wind Speed 21 mph    
Max Gust Speed 33 mph    
Visibility 10 miles    
Events      
T = Trace of Precipitation, MM = Missing Value Source: NWS Daily Summary

Daily Weather History Graph

Daily Weather History Graph

Search for Another Location

Airport:

Trip Planner

Search our weather history database for the weather conditions in past years. The results will help you decide how hot, cold, wet, or windy it might be!

Date:

Astronomy

Jan. 12, 2011 Rise Set
Actual Time 7:11 AM EST 5:10 PM EST
Civil Twilight 6:43 AM EST 5:38 PM EST
Nautical Twilight 6:12 AM EST 6:09 PM EST
Astronomical Twilight 5:41 AM EST 6:40 PM EST
Moon 11:17 AM EST (1/12) 12:12 AM EST (1/12)
Length of Visible Light 10h 54m
Length of Day
9h 59m
First Quarter, 52% of the Moon is Illuminated
Jan 12
First Quarter
Jan 19
Full
Jan 26
Last Quarter
Feb 2
New
Feb 11
First Quarter

Hourly Weather History & Observations

Time (EST) Temp. Windchill Dew Point Humidity Pressure Visibility Wind Dir Wind Speed Gust Speed Precip Events Conditions
12:28 AM 37.4 °F 28.2 °F 33.8 °F 87% 29.96 in 10.0 mi West 16.1 mph 29.9 mph N/A   Overcast
12:51 AM 37.0 °F 27.0 °F 33.1 °F 86% 29.96 in 9.0 mi West 18.4 mph 28.8 mph N/A   Overcast
1:20 AM 37.4 °F 27.5 °F 32.0 °F 81% 29.97 in 9.0 mi West 18.4 mph 29.9 mph N/A   Overcast
1:51 AM 37.0 °F 27.7 °F 32.0 °F 82% 29.98 in 10.0 mi West 16.1 mph 28.8 mph N/A   Overcast
2:29 AM 37.4 °F 28.5 °F 30.2 °F 75% 29.98 in 10.0 mi West 15.0 mph 24.2 mph N/A   Overcast
2:51 AM 37.0 °F 28.1 °F 30.9 °F 79% 29.99 in 10.0 mi West 15.0 mph 27.6 mph N/A   Overcast
3:04 AM 37.4 °F 27.8 °F 30.2 °F 75% 30.00 in 10.0 mi West 17.3 mph 26.5 mph N/A   Overcast
3:51 AM 37.0 °F 27.7 °F 30.0 °F 76% 29.99 in 10.0 mi West 16.1 mph 27.6 mph N/A   Mostly Cloudy
4:51 AM 36.0 °F 26.3 °F 28.9 °F 76% 30.00 in 10.0 mi West 16.1 mph 27.6 mph N/A   Mostly Cloudy
5:36 AM 35.6 °F 25.5 °F 28.4 °F 75% 30.01 in 10.0 mi West 17.3 mph 28.8 mph N/A   Scattered Clouds
5:51 AM 36.0 °F 26.3 °F 28.9 °F 76% 30.01 in 10.0 mi West 16.1 mph 28.8 mph N/A   Partly Cloudy
6:51 AM 36.0 °F 27.1 °F 28.9 °F 76% 30.03 in 10.0 mi West 13.8 mph 23.0 mph N/A   Partly Cloudy
7:51 AM 36.0 °F 26.7 °F 28.0 °F 73% 30.04 in 10.0 mi West 15.0 mph 25.3 mph N/A   Clear
8:51 AM 37.0 °F 27.7 °F 28.0 °F 70% 30.05 in 10.0 mi West 16.1 mph 25.3 mph N/A   Clear
9:51 AM 37.9 °F 29.6 °F 27.0 °F 65% 30.06 in 10.0 mi West 13.8 mph 25.3 mph N/A   Clear
10:51 AM 37.9 °F 29.2 °F 26.1 °F 62% 30.04 in 10.0 mi West 15.0 mph 26.5 mph N/A   Partly Cloudy
11:51 AM 39.0 °F 30.3 °F 24.1 °F 55% 30.01 in 10.0 mi West 16.1 mph 28.8 mph N/A   Clear
12:51 PM 39.0 °F 30.6 °F 21.9 °F 50% 29.98 in 10.0 mi WNW 15.0 mph 28.8 mph N/A   Clear
1:51 PM 39.9 °F 32.1 °F 23.0 °F 51% 29.97 in 10.0 mi West 13.8 mph 26.5 mph N/A   Clear
2:51 PM 39.0 °F 29.6 °F 23.0 °F 53% 29.99 in 10.0 mi West 18.4 mph 27.6 mph N/A   Clear
3:51 PM 39.0 °F 30.6 °F 24.1 °F 55% 30.01 in 10.0 mi WNW 15.0 mph 27.6 mph N/A   Clear
4:51 PM 37.9 °F 28.9 °F 23.0 °F 55% 30.03 in 10.0 mi West 16.1 mph 25.3 mph N/A   Clear
5:51 PM 37.0 °F 27.7 °F 24.1 °F 59% 30.04 in 10.0 mi WNW 16.1 mph 28.8 mph N/A   Clear
6:51 PM 37.0 °F 28.1 °F 24.1 °F 59% 30.07 in 10.0 mi West 15.0 mph 26.5 mph N/A   Clear
7:51 PM 37.0 °F 28.9 °F 25.0 °F 62% 30.09 in 10.0 mi West 12.7 mph 27.6 mph N/A   Clear
8:51 PM 37.0 °F 28.5 °F 25.0 °F 62% 30.11 in 10.0 mi WNW 13.8 mph 23.0 mph N/A   Clear
9:51 PM 37.0 °F 27.7 °F 21.0 °F 52% 30.12 in 10.0 mi WNW 16.1 mph 26.5 mph N/A   Clear
10:51 PM 36.0 °F 27.5 °F 21.0 °F 55% 30.13 in 10.0 mi WNW 12.7 mph 25.3 mph N/A   Clear
11:51 PM 35.1 °F 26.9 °F 19.9 °F 54% 30.14 in 10.0 mi WNW 11.5 mph 25.3 mph N/A   Clear